WetterOnline ( https://www.wetteronline.de )

Wetter aktuell Itzehoe

Aktuelles Wetter: Itzehoe (26m)

6-stündlich | Neueste Meldungen
Ortszeit Temperatur Wetter
Do, 18.07. 2:00 10.5° C wolkenlos
Mi, 17.07. 20:00 19.5° C wolkenlos
Mi, 17.07. 14:00 17.1° C bewölkt
Mi, 17.07. 8:00 13.6° C bedeckt
Mi, 17.07. 2:00 13.4° C bedeckt
Di, 16.07. 20:00 15.4° C bedeckt
Di, 16.07. 14:00 17.3° C bedeckt
Di, 16.07. 8:00 14.0° C bedeckt
Ortszeit Temperatur Wetter
Do, 18.07. 4:30 8.8° C wolkig
Do, 18.07. 4:20 8.8° C wolkig
Do, 18.07. 4:10 9.3° C Nebel
Do, 18.07. 4:00 9.0° C bedeckt
Do, 18.07. 3:50 9.0° C Nebel
Do, 18.07. 3:40 9.0° C Nebel
Do, 18.07. 3:30 9.5° C wolkig
Do, 18.07. 3:00 9.9° C fast wolkenlos
Do, 18.07. 2:30 10.2° C wolkenlos
Do, 18.07. 2:00 10.5° C wolkenlos
Do, 18.07. 1:30 11.0° C wolkenlos
Ortszeit Relative Feuchte Sichtweite
Do, 18.07. 2:00 100% 0.4 km
Mi, 17.07. 20:00 66% 35 km
Mi, 17.07. 14:00 70% 35 km
Mi, 17.07. 8:00 81% 40 km
Mi, 17.07. 2:00 80% 30 km
Di, 16.07. 20:00 74% 26 km
Di, 16.07. 14:00 72% 22 km
Di, 16.07. 8:00 92% 29 km
Ortszeit Relative Feuchte Sichtweite
Do, 18.07. 4:30 98% 3.3 km
Do, 18.07. 4:20 98% -
Do, 18.07. 4:10 100% -
Do, 18.07. 4:00 98% <100 m
Do, 18.07. 3:50 98% -
Do, 18.07. 3:40 99% -
Do, 18.07. 3:30 100% 100 m
Do, 18.07. 3:00 99% 100 m
Do, 18.07. 2:30 99% 8 km
Do, 18.07. 2:00 100% 0.4 km
Do, 18.07. 1:30 98% 10 km
Ortszeit Niederschlagsmenge Niederschlagsart
Do, 18.07. 2:00 0.1 l/m2 in 6 Std. -
Mi, 17.07. 20:00 0.0 l/m2 in 12 Std. -
Mi, 17.07. 14:00 0.0 l/m2 in 6 Std. -
Mi, 17.07. 8:00 0.0 l/m2 in 12 Std. -
Mi, 17.07. 2:00 0.0 l/m2 in 6 Std. -
Di, 16.07. 20:00 0.1 l/m2 in 12 Std. -
Di, 16.07. 14:00 0.1 l/m2 in 6 Std. -
Di, 16.07. 8:00 0.1 l/m2 in 12 Std. -
Ortszeit Niederschlagsmenge Niederschlagsart
Do, 18.07. 4:30 0.0 l/m2 in 1 Std. -
Do, 18.07. 4:20 keine Meldung -
Do, 18.07. 4:10 keine Meldung -
Do, 18.07. 4:00 0.0 l/m2 in 1 Std. -
Do, 18.07. 3:50 keine Meldung -
Do, 18.07. 3:40 keine Meldung -
Do, 18.07. 3:30 0.0 l/m2 in 1 Std. -
Do, 18.07. 3:00 0.0 l/m2 in 1 Std. -
Do, 18.07. 2:30 0.0 l/m2 in 1 Std. -
Do, 18.07. 2:00 0.0 l/m2 in 1 Std. -
Do, 18.07. 1:30 0.0 l/m2 in 1 Std. -
Ortszeit Stärke Spitze Richtung
km/h Bft. km/h Grad Sektor
Do, 18.07. 2:00 0 0 14 - -
Mi, 17.07. 20:00 6 1 15 320° NW
Mi, 17.07. 14:00 7 2 14 110° O
Mi, 17.07. 8:00 9 2 20 360° N
Mi, 17.07. 2:00 11 2 25 330° NW
Di, 16.07. 20:00 9 2 31 300° NW
Di, 16.07. 14:00 14 3 36 310° NW
Di, 16.07. 8:00 9 2 24 320° NW
Ortszeit Stärke Spitze Richtung
km/h Bft. km/h Grad Sektor
Do, 18.07. 4:30 2 1 4 80° O
Do, 18.07. 4:20 2 1 - 80° O
Do, 18.07. 4:10 0 0 - 60° NO
Do, 18.07. 4:00 0 0 4 - -
Do, 18.07. 3:50 2 1 - 120° SO
Do, 18.07. 3:40 0 0 - - -
Do, 18.07. 3:30 0 0 4 - -
Do, 18.07. 3:00 0 0 7 - -
Do, 18.07. 2:30 4 1 4 270° W
Do, 18.07. 2:00 0 0 4 - -
Do, 18.07. 1:30 4 1 4 310° NW
Ortszeit Untergrenze Bedeckung Gattung
total tief tief mittel hoch
Do, 18.07. 2:00 - 0/8 0/8 - - -
Mi, 17.07. 20:00 - 0/8 0/8 - - -
Mi, 17.07. 14:00 600 m 7/8 7/8 - - -
Mi, 17.07. 8:00 390 m 8/8 8/8 - - -
Mi, 17.07. 2:00 480 m 8/8 8/8 - - -
Di, 16.07. 20:00 570 m 8/8 8/8 - - -
Di, 16.07. 14:00 600 m 8/8 8/8 - - -
Di, 16.07. 8:00 270 m 8/8 8/8 - - -
Ortszeit Bedeckungsgrad in Achtel und Wolkenuntergrenze
Do, 18.07. 4:30 6(<30m)
Do, 18.07. 4:20 6(<30m)
Do, 18.07. 4:10 5(<30m)
Do, 18.07. 4:00 8(<30m)
Do, 18.07. 3:50 8(<30m)
Do, 18.07. 3:40 7(<30m)
Do, 18.07. 3:30 5(<30m)
Do, 18.07. 3:00 1(<30m)
Do, 18.07. 2:30 1(<30m)
Do, 18.07. 2:00 keine Wolken
Do, 18.07. 1:30 keine Wolken
Ortszeit Luftdruck NN (hPa) Tendenz (hPa in 3 Std.)
Do, 18.07. 2:00 1014 - 0,3
Mi, 17.07. 20:00 1014 - 0,8
Mi, 17.07. 14:00 1016 - 0,1
Mi, 17.07. 8:00 1016 - 0,1
Mi, 17.07. 2:00 1016 - 0,1
Di, 16.07. 20:00 1016 + 0,4
Di, 16.07. 14:00 1015 + 0,2
Di, 16.07. 8:00 1015 - 0,2
Ortszeit Luftdruck NN (hPa) Tendenz (hPa in 3 Std.)
Do, 18.07. 4:30 1014 - 0,5
Do, 18.07. 4:20 1014 keine Meldung
Do, 18.07. 4:10 1014 keine Meldung
Do, 18.07. 4:00 1014 - 0,5
Do, 18.07. 3:50 1014 keine Meldung
Do, 18.07. 3:40 1014 keine Meldung
Do, 18.07. 3:30 1014 - 0,2
Do, 18.07. 3:00 1014 - 0,4
Do, 18.07. 2:30 1014 - 0,3
Do, 18.07. 2:00 1014 - 0,3
Do, 18.07. 1:30 1014 - 0,2
Ortszeit Schneehöhe (cm)
Do, 18.07. 2:00 -
Mi, 17.07. 20:00 -
Mi, 17.07. 14:00 -
Mi, 17.07. 8:00 -
Mi, 17.07. 2:00 -
Di, 16.07. 20:00 -
Di, 16.07. 14:00 -
Di, 16.07. 8:00 -
Ortszeit Schneehöhe (cm)
Do, 18.07. 4:30 -
Do, 18.07. 4:20 -
Do, 18.07. 4:10 -
Do, 18.07. 4:00 -
Do, 18.07. 3:50 -
Do, 18.07. 3:40 -
Do, 18.07. 3:30 -
Do, 18.07. 3:00 -
Do, 18.07. 2:30 -
Do, 18.07. 2:00 -
Do, 18.07. 1:30 -
Link zu dieser Seite / Seite empfehlen

Das Wetter in ...